Weather in Pasadena

United States     34°09′09″N   118°07′53″W
temp.,
°C
wind,
m/s
gust,
m/s
humid.,
%
clouds,
%
prec.,
mm/h
press.,
hPa
HPBL,
m
16 september, thu
thu1623:00+18ese11410 0.0 1012105
02:00+16ese11410 0.0 101297
05:00+15ese11430 0.0 101196
08:00+17sse11466 0.0 1012202
11:00+22ssw32380 0.0 1012482
14:00+25ssw42310 0.0 1010666
17:00+24s32340 0.0 1010542
20:00+18ese22570 0.0 1011153
17 september, fri
fri1723:00+17ese11480 0.0 1012116
02:00+16ese11410 0.0 101289
05:00+16ese11350 0.0 101366
08:00+19sse11310 0.0 1014133
11:00+24ssw32320 0.0 1015582
14:00+26s44270 0.0 1015790
17:00+25s33300 0.0 1014606
20:00+18ese23520 0.0 1016163
18 september, sat
sat1823:00+17ese12520 0.0 1017122
02:00+17e11460 0.0 101772
05:00+16e11380 0.0 101646
08:00+19sse11300 0.0 1018111
11:00+24ssw33280 0.0 1017645
14:00+27ssw43230 0.0 1016973
17:00+25ssw32250 0.0 1015711
20:00+18e11450 0.0 1016146
19 september, sun
sun1923:00+18ne11440 0.0 1016102
02:00+17ene11430 0.0 101571
05:00+16nne11460 0.0 101553
08:00+19ese00370 0.0 1015122
11:00+24sw32290 0.0 1015669
14:00+27sw42240 0.0 1013992
17:00+26ssw32265 0.0 1012757
20:00+20e00463 0.0 1013169
20 september, mon
mon2023:00+19ne11450 0.0 1013110
02:00+18ne11480 0.0 101262
05:00+18nne22500 0.0 101242
08:00+21nne12410 0.0 1012125
11:00+27wsw22260 0.0 1012795
14:00+30sw33220 0.0 10111157
17:00+30ssw31250 0.0 1011651
20:00+23ese11420 0.0 1013126